AAR747 RKSI-VTSP

Flight info

Callsign AAR747
Flight time N/A
Altitude 38000
Route BOPTA3H BOPTA Z51 BEDES Y711 MUGUS Y742 SALMI Q11 MUNNA/N0487F400 Q11 TACLE B591 HCN G86 KAPLI DCT MADRU DCT SULUX DCT IGLEG DCT IKELA/K0898F400 A1 PAPRA/N0484F400 R575 SMU W32 SAPUD Y8 SAVSA SAVSA1C
Aircraft A359/H-SDE1E2E3FGHIJ1J2J3J4J5M1P2RWXYZ/LB2D1G1

Departure

Time 2026-05-06 02:39
Airport Incheon International Airport (RKSI)

Arrival

Time N/A
Airport Phuket International Airport (VTSP)
Time Latitude Longitude Altitude Speed Heading
2026-05-06 02:23 37.46562 126.43404 39 ft 0 kts 314°
2026-05-06 02:24 37.46561 126.43405 38 ft 1 kts 314°
2026-05-06 02:25 37.46543 126.43427 38 ft 4 kts 314°
2026-05-06 02:25 37.46528 126.43446 39 ft 4 kts 314°
2026-05-06 02:25 37.46512 126.43472 39 ft 4 kts 295°
2026-05-06 02:25 37.46508 126.43501 39 ft 4 kts 240°
2026-05-06 02:26 37.46522 126.43526 39 ft 4 kts 234°
2026-05-06 02:26 37.46528 126.43537 39 ft 0 kts 234°
2026-05-06 02:31 37.46515 126.43515 39 ft 9 kts 232°
2026-05-06 02:31 37.46438 126.43483 37 ft 14 kts 158°
2026-05-06 02:31 37.46351 126.43554 39 ft 16 kts 145°
2026-05-06 02:32 37.46249 126.43642 39 ft 18 kts 150°
2026-05-06 02:32 37.46162 126.43611 38 ft 15 kts 228°
2026-05-06 02:32 37.46094 126.43496 39 ft 18 kts 234°
2026-05-06 02:32 37.46012 126.43351 39 ft 22 kts 234°
2026-05-06 02:33 37.45950 126.43243 39 ft 13 kts 234°
2026-05-06 02:33 37.45914 126.43178 39 ft 14 kts 234°
2026-05-06 02:34 37.46088 126.42880 39 ft 17 kts 324°
2026-05-06 02:34 37.46187 126.42791 39 ft 18 kts 324°
2026-05-06 02:34 37.46293 126.42697 39 ft 19 kts 325°
2026-05-06 02:34 37.46406 126.42598 39 ft 20 kts 325°
2026-05-06 02:35 37.46524 126.42493 39 ft 21 kts 324°
2026-05-06 02:35 37.46649 126.42382 38 ft 23 kts 324°
2026-05-06 02:35 37.46781 126.42264 38 ft 24 kts 325°
2026-05-06 02:35 37.46918 126.42143 37 ft 25 kts 325°
2026-05-06 02:36 37.47060 126.42016 38 ft 25 kts 323°
2026-05-06 02:36 37.47198 126.41893 39 ft 24 kts 324°
2026-05-06 02:36 37.47295 126.41806 38 ft 11 kts 324°
2026-05-06 02:36 37.47340 126.41735 39 ft 10 kts 275°
2026-05-06 02:37 37.47316 126.41658 39 ft 10 kts 242°
2026-05-06 02:37 37.47267 126.41603 39 ft 9 kts 207°
2026-05-06 02:37 37.47213 126.41617 40 ft 8 kts 146°
2026-05-06 02:37 37.47164 126.41659 40 ft 2 kts 144°
2026-05-06 02:38 37.47157 126.41665 40 ft 10 kts 144°
2026-05-06 02:38 37.46903 126.41893 39 ft 79 kts 144°
2026-05-06 02:38 37.46285 126.42440 40 ft 136 kts 145°
2026-05-06 02:38 37.45377 126.43247 148 ft 174 kts 144°
2026-05-06 02:39 37.44450 126.44077 1020 ft 159 kts 146°
2026-05-06 02:39 37.43466 126.44845 1472 ft 179 kts 150°
2026-05-06 02:39 37.42316 126.45646 1961 ft 198 kts 151°
2026-05-06 02:39 37.41071 126.46552 2432 ft 216 kts 150°
2026-05-06 02:40 37.39717 126.47574 2740 ft 238 kts 150°
2026-05-06 02:40 37.38202 126.48549 3167 ft 250 kts 162°
2026-05-06 02:40 37.36520 126.49180 3796 ft 254 kts 167°
2026-05-06 02:40 37.34815 126.49741 4437 ft 258 kts 168°
2026-05-06 02:41 37.33037 126.50329 5069 ft 264 kts 168°
2026-05-06 02:41 37.31260 126.50786 5686 ft 267 kts 174°
2026-05-06 02:41 37.29383 126.51173 6362 ft 271 kts 174°
2026-05-06 02:41 37.27510 126.51546 7038 ft 275 kts 174°
2026-05-06 02:42 37.25604 126.51915 7714 ft 280 kts 174°
2026-05-06 02:42 37.23666 126.52284 8397 ft 284 kts 174°
2026-05-06 02:42 37.21692 126.52660 9079 ft 289 kts 174°
2026-05-06 02:42 37.19722 126.53031 9758 ft 292 kts 174°
2026-05-06 02:43 37.17698 126.53409 10383 ft 299 kts 174°
2026-05-06 02:43 37.15582 126.53801 10716 ft 316 kts 173°
2026-05-06 02:43 37.13324 126.54222 11040 ft 332 kts 173°
2026-05-06 02:43 37.11016 126.54653 11339 ft 347 kts 173°
2026-05-06 02:44 37.08559 126.55112 11813 ft 356 kts 173°
2026-05-06 02:44 37.06092 126.55571 12397 ft 361 kts 173°
2026-05-06 02:44 37.03601 126.56035 12997 ft 364 kts 173°
2026-05-06 02:44 37.01073 126.56507 13591 ft 369 kts 173°
2026-05-06 02:45 36.98558 126.56976 14136 ft 373 kts 173°
2026-05-06 02:45 36.95972 126.57460 14712 ft 377 kts 173°
2026-05-06 02:45 36.93369 126.57947 15295 ft 381 kts 173°
2026-05-06 02:45 36.90732 126.58431 15868 ft 385 kts 173°
2026-05-06 02:46 36.88069 126.58920 16419 ft 389 kts 173°
2026-05-06 02:46 36.85384 126.59420 16945 ft 392 kts 173°
2026-05-06 02:46 36.82725 126.59914 17476 ft 396 kts 173°
2026-05-06 02:46 36.79937 126.60431 18006 ft 399 kts 173°
2026-05-06 02:47 36.77173 126.60942 18525 ft 403 kts 173°
2026-05-06 02:47 36.74390 126.61471 19019 ft 407 kts 171°
2026-05-06 02:47 36.71599 126.62185 19530 ft 411 kts 168°
2026-05-06 02:47 36.68814 126.63053 20037 ft 415 kts 166°
2026-05-06 02:48 36.66021 126.64004 20536 ft 418 kts 165°
2026-05-06 02:48 36.63202 126.64994 21048 ft 422 kts 165°
2026-05-06 02:48 36.60369 126.65985 21545 ft 425 kts 165°
2026-05-06 02:48 36.57505 126.66975 22055 ft 429 kts 166°
2026-05-06 02:49 36.54617 126.67959 22554 ft 432 kts 166°
2026-05-06 02:49 36.51695 126.68944 23058 ft 436 kts 166°
2026-05-06 02:49 36.48751 126.69928 23520 ft 440 kts 166°
2026-05-06 02:49 36.45779 126.70921 24005 ft 443 kts 166°
2026-05-06 02:50 36.42787 126.71919 24450 ft 447 kts 166°
2026-05-06 02:50 36.39773 126.72925 24878 ft 451 kts 166°
2026-05-06 02:50 36.36727 126.73943 25301 ft 455 kts 166°
2026-05-06 02:50 36.33665 126.74974 25739 ft 458 kts 166°
2026-05-06 02:51 36.30576 126.76016 26126 ft 462 kts 166°
2026-05-06 02:51 36.27470 126.77066 26554 ft 465 kts 166°
2026-05-06 02:51 36.24336 126.78124 26942 ft 468 kts 166°
2026-05-06 02:51 36.21182 126.79187 27335 ft 472 kts 166°
2026-05-06 02:52 36.18038 126.80201 27703 ft 475 kts 169°
2026-05-06 02:52 36.14766 126.80789 28081 ft 476 kts 178°
2026-05-06 02:52 36.11452 126.80790 28472 ft 477 kts 184°
2026-05-06 02:52 36.08126 126.80556 28832 ft 480 kts 186°
2026-05-06 02:53 36.05097 126.80252 29155 ft 483 kts 187°
2026-05-06 02:53 36.01737 126.79867 29482 ft 486 kts 187°
2026-05-06 02:53 35.98361 126.79466 29810 ft 489 kts 187°
2026-05-06 02:53 35.94963 126.79068 30192 ft 491 kts 187°
2026-05-06 02:54 35.91563 126.78680 30572 ft 492 kts 187°
2026-05-06 02:54 35.88140 126.78302 30883 ft 494 kts 187°
2026-05-06 02:54 35.84708 126.77929 31201 ft 496 kts 187°
2026-05-06 02:54 35.81265 126.77556 31507 ft 498 kts 187°
2026-05-06 02:55 35.77807 126.77180 31798 ft 499 kts 187°
2026-05-06 02:55 35.74343 126.76805 32099 ft 501 kts 187°
2026-05-06 02:55 35.70868 126.76428 32380 ft 502 kts 188°
2026-05-06 02:55 35.67384 126.76052 32636 ft 503 kts 188°
2026-05-06 02:56 35.63888 126.75674 32870 ft 505 kts 188°
2026-05-06 02:56 35.60391 126.75299 33167 ft 505 kts 188°
2026-05-06 02:56 35.57093 126.74947 33523 ft 503 kts 188°
2026-05-06 02:56 35.53613 126.74574 33894 ft 501 kts 188°
2026-05-06 02:57 35.50138 126.74201 34234 ft 500 kts 188°
2026-05-06 02:57 35.46783 126.73846 34601 ft 498 kts 188°
2026-05-06 02:57 35.43379 126.73482 34961 ft 495 kts 188°
2026-05-06 02:57 35.39915 126.73112 35335 ft 492 kts 188°
2026-05-06 02:58 35.36510 126.72746 35659 ft 491 kts 188°
2026-05-06 02:58 35.33156 126.72385 35971 ft 489 kts 188°
2026-05-06 02:58 35.29728 126.72017 36277 ft 488 kts 189°
2026-05-06 02:58 35.26353 126.71656 36551 ft 486 kts 189°
2026-05-06 02:59 35.23028 126.71301 36779 ft 486 kts 189°
2026-05-06 02:59 35.19664 126.70943 37063 ft 484 kts 189°
2026-05-06 02:59 35.16321 126.70589 37414 ft 480 kts 189°
2026-05-06 02:59 35.13012 126.70239 37762 ft 476 kts 189°
2026-05-06 03:00 35.09727 126.69893 38042 ft 473 kts 189°
2026-05-06 03:00 35.03155 126.69191 38129 ft 474 kts 189°
2026-05-06 03:01 34.96583 126.68491 38128 ft 474 kts 189°
2026-05-06 03:01 34.90014 126.67793 38127 ft 474 kts 189°
2026-05-06 03:02 34.83437 126.67098 38128 ft 474 kts 189°
2026-05-06 03:02 34.76880 126.66407 38130 ft 473 kts 189°
2026-05-06 03:03 34.70326 126.65719 38128 ft 472 kts 189°
2026-05-06 03:03 34.63781 126.65031 38128 ft 472 kts 189°
2026-05-06 03:04 34.57231 126.64343 38127 ft 472 kts 189°
2026-05-06 03:04 34.50692 126.63657 38127 ft 472 kts 189°
2026-05-06 03:05 34.44147 126.62976 38128 ft 472 kts 189°
2026-05-06 03:05 34.37600 126.62300 38127 ft 472 kts 189°
2026-05-06 03:06 34.31067 126.61616 38129 ft 472 kts 189°
2026-05-06 03:06 34.24524 126.60928 38128 ft 472 kts 189°
2026-05-06 03:07 34.18029 126.60252 38129 ft 472 kts 189°
2026-05-06 03:07 34.11493 126.59567 38128 ft 472 kts 189°
2026-05-06 03:08 34.04949 126.58884 38128 ft 472 kts 189°
2026-05-06 03:08 33.98403 126.58204 38128 ft 472 kts 189°
2026-05-06 03:09 33.91881 126.57530 38127 ft 468 kts 190°
2026-05-06 03:09 33.85424 126.56741 38128 ft 463 kts 195°
2026-05-06 03:10 33.79306 126.54660 38128 ft 457 kts 203°
2026-05-06 03:10 33.74289 126.52528 38128 ft 457 kts 204°
2026-05-06 03:11 33.67352 126.49482 38128 ft 457 kts 204°
2026-05-06 03:11 33.61379 126.46872 38128 ft 457 kts 204°
2026-05-06 03:12 33.56417 126.44720 38128 ft 457 kts 204°
2026-05-06 03:12 33.50457 126.42149 38128 ft 456 kts 204°
2026-05-06 03:13 33.44494 126.39582 38128 ft 454 kts 204°
2026-05-06 03:13 33.38557 126.37037 38129 ft 453 kts 204°
2026-05-06 03:14 33.32637 126.34493 38129 ft 452 kts 204°
2026-05-06 03:14 33.26730 126.31958 38127 ft 451 kts 204°
2026-05-06 03:15 33.20827 126.29426 38128 ft 450 kts 204°
2026-05-06 03:15 33.14930 126.26903 38126 ft 452 kts 203°
2026-05-06 03:16 33.08967 126.24350 38130 ft 459 kts 203°
2026-05-06 03:16 33.02963 126.21794 38130 ft 457 kts 203°
2026-05-06 03:17 32.96980 126.19248 38129 ft 456 kts 203°
2026-05-06 03:17 32.91031 126.16688 38119 ft 454 kts 203°
2026-05-06 03:18 32.85093 126.14135 38119 ft 453 kts 203°
2026-05-06 03:18 32.79171 126.11597 38119 ft 452 kts 203°
2026-05-06 03:19 32.73295 126.09083 38119 ft 452 kts 203°
2026-05-06 03:19 32.67379 126.06557 38119 ft 451 kts 203°
2026-05-06 03:20 32.58522 126.02784 38119 ft 451 kts 203°
2026-05-06 03:20 32.52623 126.00271 38118 ft 450 kts 203°
2026-05-06 03:21 32.46718 125.97766 38119 ft 453 kts 203°
2026-05-06 03:21 32.40757 125.95241 38119 ft 456 kts 203°
2026-05-06 03:22 32.34795 125.92718 38112 ft 455 kts 203°
2026-05-06 03:22 32.28844 125.90204 38110 ft 453 kts 203°
2026-05-06 03:23 32.22908 125.87698 38111 ft 453 kts 203°
2026-05-06 03:23 32.16976 125.85199 38109 ft 452 kts 203°
2026-05-06 03:24 32.11069 125.82714 38111 ft 451 kts 203°
2026-05-06 03:24 32.05198 125.80246 38108 ft 451 kts 203°
2026-05-06 03:25 31.99289 125.77769 38108 ft 451 kts 203°
2026-05-06 03:25 31.93380 125.75290 38098 ft 450 kts 203°
2026-05-06 03:26 31.87480 125.72805 38100 ft 450 kts 203°
2026-05-06 03:26 31.81582 125.70327 38101 ft 450 kts 203°
2026-05-06 03:27 31.75680 125.67850 38095 ft 451 kts 203°
2026-05-06 03:27 31.69767 125.65382 38093 ft 451 kts 203°
2026-05-06 03:28 31.63854 125.62910 38091 ft 451 kts 203°
2026-05-06 03:28 31.57935 125.60433 38095 ft 452 kts 203°
2026-05-06 03:29 31.52006 125.57958 38091 ft 452 kts 203°
2026-05-06 03:29 31.46078 125.55475 38092 ft 453 kts 203°
2026-05-06 03:30 31.40147 125.52985 38095 ft 453 kts 203°
2026-05-06 03:30 31.34252 125.50518 38089 ft 453 kts 203°
2026-05-06 03:31 31.28271 125.48022 38082 ft 453 kts 203°
2026-05-06 03:31 31.22373 125.45566 38082 ft 453 kts 203°
2026-05-06 03:32 31.16436 125.43096 38082 ft 453 kts 203°
2026-05-06 03:32 31.10507 125.40631 38082 ft 453 kts 202°
2026-05-06 03:33 31.04573 125.38167 38080 ft 452 kts 202°
2026-05-06 03:33 30.98648 125.35710 38073 ft 452 kts 202°
2026-05-06 03:34 30.92726 125.33257 38072 ft 451 kts 202°
2026-05-06 03:34 30.86817 125.30815 38072 ft 451 kts 202°
2026-05-06 03:35 30.80904 125.28374 38073 ft 451 kts 202°
2026-05-06 03:35 30.75000 125.25940 38073 ft 450 kts 202°
2026-05-06 03:36 30.69107 125.23514 38072 ft 449 kts 202°
2026-05-06 03:36 30.63212 125.21088 38073 ft 450 kts 202°
2026-05-06 03:37 30.57320 125.18667 38064 ft 449 kts 202°
2026-05-06 03:37 30.51433 125.16252 38063 ft 448 kts 202°
2026-05-06 03:38 30.45549 125.13846 38063 ft 448 kts 202°
2026-05-06 03:38 30.39671 125.11438 38063 ft 448 kts 202°
2026-05-06 03:39 30.33785 125.09029 38063 ft 448 kts 202°
2026-05-06 03:39 30.27904 125.06626 38063 ft 448 kts 202°
2026-05-06 03:40 30.22019 125.04224 38064 ft 449 kts 202°
2026-05-06 03:40 30.16120 125.01819 38063 ft 449 kts 202°
2026-05-06 03:41 30.10263 124.99438 38063 ft 450 kts 202°
2026-05-06 03:41 30.04354 124.97036 38063 ft 450 kts 202°
2026-05-06 03:42 29.98438 124.94638 38063 ft 451 kts 202°
2026-05-06 03:42 29.92567 124.92149 38062 ft 447 kts 203°
2026-05-06 03:43 29.86768 124.89636 38058 ft 445 kts 203°
2026-05-06 03:43 29.80963 124.87140 38063 ft 445 kts 203°
2026-05-06 03:44 29.75140 124.84656 38055 ft 446 kts 203°
2026-05-06 03:44 29.69310 124.82178 38054 ft 447 kts 203°
2026-05-06 03:45 29.63481 124.79703 38054 ft 447 kts 203°
2026-05-06 03:45 29.57636 124.77223 38054 ft 448 kts 203°
2026-05-06 03:46 29.51793 124.74748 38054 ft 448 kts 203°
2026-05-06 03:46 29.45946 124.72273 38046 ft 448 kts 203°
2026-05-06 03:47 29.40104 124.69805 38045 ft 448 kts 203°
2026-05-06 03:47 29.34255 124.67336 38046 ft 448 kts 203°
2026-05-06 03:48 29.28453 124.64890 38045 ft 447 kts 203°
2026-05-06 03:48 29.22627 124.62437 38045 ft 447 kts 203°
2026-05-06 03:49 29.16792 124.59980 38045 ft 446 kts 203°
2026-05-06 03:49 29.10966 124.57534 38045 ft 446 kts 203°
2026-05-06 03:50 29.05144 124.55092 38045 ft 445 kts 203°
2026-05-06 03:50 28.99332 124.52656 38045 ft 444 kts 202°
2026-05-06 03:51 28.93781 124.49650 38046 ft 440 kts 214°
2026-05-06 03:51 28.88705 124.45757 38045 ft 439 kts 216°
2026-05-06 03:52 28.83716 124.41728 38046 ft 440 kts 217°
2026-05-06 03:52 28.78738 124.37694 38045 ft 439 kts 217°
2026-05-06 03:53 28.73752 124.33682 38045 ft 439 kts 217°
2026-05-06 03:53 28.68764 124.29689 38040 ft 438 kts 217°
2026-05-06 03:54 28.63778 124.25704 38017 ft 438 kts 217°
2026-05-06 03:54 28.58791 124.21721 38021 ft 438 kts 217°
2026-05-06 03:55 28.53802 124.17740 38017 ft 438 kts 217°
2026-05-06 03:55 28.48809 124.13763 38010 ft 438 kts 217°
2026-05-06 03:56 28.43817 124.09790 38007 ft 438 kts 217°
2026-05-06 03:56 28.38827 124.05824 37999 ft 438 kts 217°
2026-05-06 03:57 28.33838 124.01866 37998 ft 438 kts 217°
2026-05-06 03:57 28.28467 123.98563 37998 ft 441 kts 207°
2026-05-06 03:58 28.22821 123.95780 37999 ft 444 kts 206°
2026-05-06 03:58 28.17125 123.93081 37998 ft 443 kts 206°
2026-05-06 03:59 28.11470 123.90402 37999 ft 443 kts 206°
2026-05-06 03:59 28.05794 123.87699 37999 ft 442 kts 206°
2026-05-06 04:00 28.00127 123.84992 37998 ft 442 kts 206°
2026-05-06 04:00 27.94461 123.82288 37999 ft 442 kts 206°
2026-05-06 04:01 27.89709 123.80025 37999 ft 443 kts 206°
2026-05-06 04:01 27.84021 123.77320 37999 ft 444 kts 206°
2026-05-06 04:02 27.78332 123.74616 37994 ft 444 kts 206°
2026-05-06 04:02 27.72631 123.71914 37990 ft 445 kts 206°
2026-05-06 04:03 27.66916 123.69203 37995 ft 446 kts 206°
2026-05-06 04:03 27.61346 123.66230 37999 ft 444 kts 214°
2026-05-06 04:04 27.56234 123.62333 37998 ft 444 kts 217°
2026-05-06 04:04 27.51206 123.58257 37999 ft 445 kts 218°
2026-05-06 04:05 27.46180 123.54148 38007 ft 447 kts 218°
2026-05-06 04:05 27.41124 123.50041 38003 ft 449 kts 218°
2026-05-06 04:06 27.36037 123.45926 37999 ft 451 kts 218°
2026-05-06 04:06 27.30934 123.41806 37999 ft 452 kts 218°
2026-05-06 04:07 27.25809 123.37677 37999 ft 454 kts 218°
2026-05-06 04:07 27.20671 123.33542 37999 ft 455 kts 218°
2026-05-06 04:08 27.15517 123.29399 37999 ft 457 kts 218°
2026-05-06 04:08 27.10343 123.25240 37999 ft 458 kts 218°
2026-05-06 04:09 27.05156 123.21077 37999 ft 459 kts 218°
2026-05-06 04:09 26.99959 123.16912 38007 ft 460 kts 218°
2026-05-06 04:10 26.94744 123.12738 38008 ft 461 kts 218°
2026-05-06 04:10 26.89524 123.08563 38008 ft 462 kts 218°
2026-05-06 04:11 26.84289 123.04382 38008 ft 462 kts 218°
2026-05-06 04:11 26.79046 123.00201 38075 ft 463 kts 219°
2026-05-06 04:12 26.76457 122.98138 38258 ft 463 kts 219°
2026-05-06 04:12 26.73802 122.96026 38442 ft 462 kts 219°
2026-05-06 04:12 26.71216 122.93971 38579 ft 463 kts 219°
2026-05-06 04:12 26.68587 122.91887 38720 ft 463 kts 219°
2026-05-06 04:13 26.65962 122.89808 38852 ft 463 kts 219°
2026-05-06 04:13 26.63330 122.87724 38979 ft 463 kts 219°
2026-05-06 04:13 26.60698 122.85640 39085 ft 464 kts 219°
2026-05-06 04:13 26.58069 122.83559 39208 ft 464 kts 219°
2026-05-06 04:14 26.55435 122.81474 39347 ft 463 kts 219°
2026-05-06 04:14 26.52801 122.79393 39452 ft 464 kts 219°
2026-05-06 04:14 26.47535 122.75223 39651 ft 464 kts 219°
2026-05-06 04:15 26.44905 122.73137 39796 ft 463 kts 219°
2026-05-06 04:15 26.42280 122.71058 39901 ft 463 kts 219°
2026-05-06 04:15 26.37013 122.66889 39990 ft 465 kts 219°
2026-05-06 04:16 26.31720 122.62707 39991 ft 467 kts 219°
2026-05-06 04:16 26.26423 122.58528 39991 ft 467 kts 219°
2026-05-06 04:17 26.21119 122.54348 39993 ft 467 kts 219°
2026-05-06 04:17 26.15807 122.50168 39993 ft 468 kts 219°
2026-05-06 04:18 26.10491 122.45992 39991 ft 468 kts 220°
2026-05-06 04:18 26.05162 122.41818 39986 ft 468 kts 220°
2026-05-06 04:19 25.99835 122.37645 39992 ft 468 kts 220°
2026-05-06 04:19 25.94502 122.33477 39985 ft 468 kts 220°
2026-05-06 04:20 25.89175 122.29315 39992 ft 469 kts 220°
2026-05-06 04:20 25.83837 122.25152 39993 ft 469 kts 220°
2026-05-06 04:21 25.78494 122.20988 39989 ft 469 kts 220°
2026-05-06 04:21 25.73160 122.16832 39988 ft 469 kts 220°
2026-05-06 04:22 25.67820 122.12679 39988 ft 469 kts 220°
2026-05-06 04:23 25.58936 122.08071 39986 ft 485 kts 197°
2026-05-06 04:23 25.52162 122.07310 39988 ft 493 kts 188°
2026-05-06 04:24 25.45305 122.07060 39991 ft 493 kts 187°
2026-05-06 04:24 25.38448 122.06859 39987 ft 492 kts 187°
2026-05-06 04:25 25.31611 122.06620 39993 ft 491 kts 188°
2026-05-06 04:25 25.24784 122.06353 39992 ft 490 kts 188°
2026-05-06 04:26 25.17973 122.06080 39987 ft 490 kts 188°
2026-05-06 04:26 25.11156 122.05811 39987 ft 490 kts 188°
2026-05-06 04:27 25.04345 122.05551 39988 ft 489 kts 188°
2026-05-06 04:27 24.97547 122.05283 39986 ft 489 kts 188°
2026-05-06 04:28 24.90748 122.05015 39988 ft 489 kts 189°
2026-05-06 04:28 24.83962 122.04748 39986 ft 488 kts 189°
2026-05-06 04:29 24.77172 122.04484 39987 ft 488 kts 189°
2026-05-06 04:29 24.70380 122.04221 39988 ft 488 kts 189°
2026-05-06 04:30 24.63600 122.03959 39987 ft 488 kts 189°
2026-05-06 04:30 24.56855 122.03698 39988 ft 488 kts 189°
2026-05-06 04:31 24.50074 122.03434 39987 ft 488 kts 189°
2026-05-06 04:31 24.43279 122.03172 39992 ft 489 kts 189°
2026-05-06 04:32 24.36503 122.02798 39991 ft 483 kts 195°
2026-05-06 04:32 24.30054 122.01194 39986 ft 472 kts 203°
2026-05-06 04:33 24.23751 121.99171 39983 ft 472 kts 204°
2026-05-06 04:33 24.17463 121.97083 39982 ft 472 kts 205°
2026-05-06 04:34 24.11174 121.95008 39981 ft 472 kts 204°
2026-05-06 04:34 24.04879 121.92951 39980 ft 472 kts 204°
2026-05-06 04:35 23.98582 121.90902 39977 ft 472 kts 204°
2026-05-06 04:35 23.92287 121.88857 39980 ft 472 kts 204°
2026-05-06 04:36 23.85989 121.86813 39965 ft 472 kts 204°
2026-05-06 04:36 23.79690 121.84774 39963 ft 472 kts 204°
2026-05-06 04:37 23.73388 121.82731 39983 ft 472 kts 204°
2026-05-06 04:37 23.67087 121.80690 39980 ft 473 kts 204°
2026-05-06 04:38 23.60779 121.78649 39978 ft 473 kts 204°
2026-05-06 04:38 23.54511 121.76626 39983 ft 473 kts 204°
2026-05-06 04:39 23.48204 121.74580 39977 ft 473 kts 204°
2026-05-06 04:39 23.41885 121.72532 39977 ft 474 kts 204°
2026-05-06 04:40 23.35565 121.70490 39982 ft 474 kts 204°
2026-05-06 04:40 23.29235 121.68451 39976 ft 474 kts 204°
2026-05-06 04:41 23.22907 121.66416 39983 ft 475 kts 204°
2026-05-06 04:41 23.16569 121.64377 39972 ft 475 kts 204°
2026-05-06 04:42 23.10234 121.62344 39974 ft 474 kts 203°
2026-05-06 04:42 23.03910 121.60316 39970 ft 474 kts 203°
2026-05-06 04:43 22.97576 121.58284 39970 ft 474 kts 203°
2026-05-06 04:43 22.91248 121.56260 39961 ft 474 kts 203°
2026-05-06 04:44 22.84917 121.54242 39963 ft 475 kts 203°
2026-05-06 04:44 22.78578 121.52224 39963 ft 475 kts 203°
2026-05-06 04:45 22.72237 121.50203 39965 ft 474 kts 203°
2026-05-06 04:45 22.66370 121.47263 39966 ft 458 kts 220°
2026-05-06 04:46 22.61341 121.43172 39965 ft 455 kts 224°
2026-05-06 04:46 22.56389 121.38912 39962 ft 455 kts 224°
2026-05-06 04:47 22.51413 121.34658 39965 ft 456 kts 224°
2026-05-06 04:47 22.46416 121.30437 39963 ft 456 kts 223°
2026-05-06 04:48 22.41406 121.26228 39960 ft 456 kts 223°
2026-05-06 04:48 22.36437 121.21982 39965 ft 455 kts 224°
2026-05-06 04:49 22.31505 121.17686 39963 ft 456 kts 224°
2026-05-06 04:49 22.26555 121.13406 39958 ft 456 kts 224°
2026-05-06 04:50 22.21590 121.09128 39962 ft 457 kts 224°
2026-05-06 04:50 22.17465 121.05569 39959 ft 457 kts 224°
2026-05-06 04:51 22.12489 121.01281 39945 ft 457 kts 224°
2026-05-06 04:51 22.07525 120.97009 39943 ft 458 kts 224°
2026-05-06 04:52 22.02540 120.92726 39944 ft 458 kts 224°
2026-05-06 04:52 21.97602 120.88397 39932 ft 455 kts 228°
2026-05-06 04:53 21.93604 120.83230 39936 ft 447 kts 243°
2026-05-06 04:53 21.91205 120.77148 39937 ft 440 kts 257°
2026-05-06 04:54 21.89730 120.70750 39935 ft 441 kts 259°
2026-05-06 04:54 21.88381 120.64313 39935 ft 441 kts 259°
2026-05-06 04:55 21.87014 120.57871 39935 ft 441 kts 259°
2026-05-06 04:55 21.85622 120.51442 39924 ft 441 kts 259°
2026-05-06 04:56 21.84215 120.45015 39925 ft 441 kts 259°
2026-05-06 04:56 21.82805 120.38598 39925 ft 440 kts 259°
2026-05-06 04:57 21.81395 120.32189 39924 ft 440 kts 259°
2026-05-06 04:57 21.79983 120.25775 39925 ft 440 kts 259°
2026-05-06 04:58 21.78568 120.19366 39925 ft 441 kts 259°
2026-05-06 04:58 21.77152 120.12949 39923 ft 441 kts 259°
2026-05-06 04:59 21.75734 120.06541 39923 ft 440 kts 259°
2026-05-06 04:59 21.74313 120.00138 39926 ft 440 kts 259°
2026-05-06 05:00 21.72890 119.93741 39924 ft 440 kts 259°
2026-05-06 05:00 21.71465 119.87337 39924 ft 441 kts 259°
2026-05-06 05:01 21.70033 119.80922 39926 ft 441 kts 259°
2026-05-06 05:01 21.68601 119.74514 39925 ft 441 kts 259°
2026-05-06 05:02 21.67166 119.68107 39932 ft 441 kts 259°
2026-05-06 05:02 21.65725 119.61686 39936 ft 442 kts 259°
2026-05-06 05:03 21.64282 119.55268 39924 ft 442 kts 259°
2026-05-06 05:03 21.62846 119.48891 39924 ft 442 kts 259°
2026-05-06 05:04 21.61395 119.42459 39926 ft 443 kts 259°
2026-05-06 05:04 21.59940 119.36029 39923 ft 444 kts 259°
2026-05-06 05:05 21.58482 119.29590 39924 ft 444 kts 259°
2026-05-06 05:05 21.57018 119.23142 39926 ft 444 kts 259°
2026-05-06 05:06 21.55547 119.16690 39926 ft 445 kts 259°
2026-05-06 05:06 21.54075 119.10230 39933 ft 445 kts 259°
2026-05-06 05:07 21.52601 119.03767 39934 ft 446 kts 259°
2026-05-06 05:07 21.51123 118.97303 39933 ft 446 kts 259°
2026-05-06 05:08 21.49639 118.90828 39934 ft 446 kts 259°
2026-05-06 05:08 21.48155 118.84360 39935 ft 446 kts 259°
2026-05-06 05:09 21.46667 118.77886 39942 ft 447 kts 259°
2026-05-06 05:09 21.45174 118.71410 39943 ft 447 kts 259°
2026-05-06 05:10 21.43678 118.64936 39945 ft 447 kts 259°
2026-05-06 05:10 21.42180 118.58462 39942 ft 447 kts 259°
2026-05-06 05:11 21.40681 118.51996 39942 ft 447 kts 259°
2026-05-06 05:11 21.39179 118.45527 39946 ft 446 kts 259°
2026-05-06 05:12 21.37675 118.39066 39948 ft 447 kts 258°
2026-05-06 05:12 21.36166 118.32600 39952 ft 447 kts 258°
2026-05-06 05:13 21.34658 118.26135 39952 ft 447 kts 258°
2026-05-06 05:13 21.33147 118.19671 39951 ft 447 kts 258°
2026-05-06 05:14 21.31632 118.13206 39952 ft 447 kts 258°
2026-05-06 05:14 21.30111 118.06733 39944 ft 450 kts 259°
2026-05-06 05:15 21.28573 118.00192 39944 ft 454 kts 259°
2026-05-06 05:15 21.27026 117.93636 39945 ft 454 kts 259°
2026-05-06 05:16 21.25473 117.87061 39942 ft 455 kts 259°
2026-05-06 05:16 21.23914 117.80477 39945 ft 455 kts 259°
2026-05-06 05:17 21.22364 117.73946 39944 ft 456 kts 259°
2026-05-06 05:17 21.20802 117.67364 39943 ft 456 kts 258°
2026-05-06 05:18 21.19234 117.60773 39944 ft 456 kts 258°
2026-05-06 05:18 21.17664 117.54183 39943 ft 456 kts 258°
2026-05-06 05:19 21.16702 117.47506 39952 ft 452 kts 269°
2026-05-06 05:19 21.16516 117.40784 39952 ft 452 kts 271°
2026-05-06 05:20 21.16452 117.34046 39952 ft 452 kts 271°
2026-05-06 05:20 21.16393 117.27307 39965 ft 452 kts 271°
2026-05-06 05:21 21.16270 117.20561 39967 ft 454 kts 268°
2026-05-06 05:21 21.14984 117.13929 39970 ft 459 kts 253°
2026-05-06 05:22 21.12378 117.07651 39981 ft 463 kts 248°
2026-05-06 05:22 21.09523 117.01464 39965 ft 464 kts 247°
2026-05-06 05:23 21.06643 116.95281 39963 ft 464 kts 247°
2026-05-06 05:23 21.02359 116.85992 39977 ft 464 kts 247°
2026-05-06 05:24 20.99532 116.79838 39964 ft 464 kts 247°
2026-05-06 05:24 20.96679 116.73635 39963 ft 465 kts 247°
2026-05-06 05:25 20.93825 116.67434 39965 ft 465 kts 247°
2026-05-06 05:25 20.90964 116.61227 39980 ft 465 kts 247°
2026-05-06 05:26 20.88102 116.55024 39981 ft 465 kts 247°
2026-05-06 05:26 20.85233 116.48818 39965 ft 465 kts 247°
2026-05-06 05:27 20.82363 116.42618 39963 ft 466 kts 247°
2026-05-06 05:27 20.79489 116.36413 39979 ft 466 kts 247°
2026-05-06 05:28 20.76609 116.30201 39978 ft 466 kts 247°
2026-05-06 05:28 20.73727 116.23999 39965 ft 466 kts 246°
2026-05-06 05:29 20.70847 116.17801 39967 ft 465 kts 246°
2026-05-06 05:29 20.67968 116.11613 39961 ft 465 kts 246°
2026-05-06 05:30 20.65083 116.05424 39965 ft 466 kts 246°
2026-05-06 05:30 20.62192 115.99227 39963 ft 466 kts 246°
2026-05-06 05:31 20.59297 115.93021 39959 ft 467 kts 246°
2026-05-06 05:31 20.56395 115.86815 39966 ft 468 kts 246°
2026-05-06 05:32 20.53486 115.80600 39961 ft 468 kts 246°
2026-05-06 05:32 20.50572 115.74381 39962 ft 468 kts 246°
2026-05-06 05:33 20.47660 115.68172 39962 ft 468 kts 246°
2026-05-06 05:33 20.44743 115.61962 39960 ft 468 kts 246°
2026-05-06 05:34 20.42318 115.56805 39962 ft 468 kts 246°
2026-05-06 05:34 20.39397 115.50600 39965 ft 468 kts 246°
2026-05-06 05:35 20.36476 115.44396 39963 ft 468 kts 246°
2026-05-06 05:35 20.33549 115.38199 39964 ft 468 kts 246°
2026-05-06 05:36 20.30622 115.32003 39962 ft 468 kts 246°
2026-05-06 05:36 20.27694 115.25802 39963 ft 468 kts 246°
2026-05-06 05:37 20.24766 115.19612 39961 ft 468 kts 246°
2026-05-06 05:37 20.21832 115.13418 39960 ft 468 kts 246°
2026-05-06 05:38 20.18898 115.07233 39965 ft 468 kts 246°
2026-05-06 05:38 20.15958 115.01042 39961 ft 468 kts 246°
2026-05-06 05:39 20.13018 114.94856 39960 ft 469 kts 246°
2026-05-06 05:39 20.10073 114.88668 39961 ft 469 kts 246°
2026-05-06 05:40 20.07140 114.82516 39965 ft 469 kts 246°
2026-05-06 05:40 20.04190 114.76330 39965 ft 469 kts 245°
2026-05-06 05:41 20.01235 114.70140 39966 ft 469 kts 245°
2026-05-06 05:41 19.98278 114.63953 39978 ft 470 kts 245°
2026-05-06 05:42 19.95308 114.57748 39982 ft 471 kts 245°
2026-05-06 05:42 19.92334 114.51538 39972 ft 472 kts 245°
2026-05-06 05:43 19.89357 114.45329 39978 ft 472 kts 245°
2026-05-06 05:43 19.86380 114.39128 39980 ft 471 kts 245°
2026-05-06 05:44 19.83399 114.32924 39962 ft 471 kts 245°
2026-05-06 05:44 19.80412 114.26719 39959 ft 471 kts 245°
2026-05-06 05:45 19.77425 114.20520 39961 ft 472 kts 245°
2026-05-06 05:45 19.74437 114.14329 39959 ft 472 kts 245°
2026-05-06 05:46 19.71443 114.08127 39960 ft 472 kts 245°
2026-05-06 05:46 19.68449 114.01930 39964 ft 472 kts 245°
2026-05-06 05:47 19.65473 113.95778 39966 ft 472 kts 245°
2026-05-06 05:47 19.62475 113.89584 39963 ft 472 kts 245°
2026-05-06 05:48 19.59481 113.83402 39954 ft 471 kts 245°
2026-05-06 05:48 19.56483 113.77226 39953 ft 472 kts 245°
2026-05-06 05:49 19.53476 113.71039 39954 ft 472 kts 245°
2026-05-06 05:49 19.50466 113.64857 39954 ft 472 kts 245°
2026-05-06 05:50 19.47454 113.58671 39955 ft 472 kts 245°
2026-05-06 05:50 19.44440 113.52487 39942 ft 472 kts 245°
2026-05-06 05:51 19.41425 113.46309 39944 ft 472 kts 245°
2026-05-06 05:51 19.38406 113.40128 39943 ft 472 kts 244°
2026-05-06 05:52 19.35385 113.33951 39945 ft 472 kts 244°
2026-05-06 05:52 19.32361 113.27774 39944 ft 473 kts 244°
2026-05-06 05:53 19.29335 113.21599 39945 ft 473 kts 244°
2026-05-06 05:53 19.26308 113.15426 39943 ft 472 kts 244°
2026-05-06 05:54 19.23271 113.09242 39942 ft 473 kts 244°
2026-05-06 05:54 19.20235 113.03064 39944 ft 473 kts 244°
2026-05-06 05:55 19.17195 112.96889 39944 ft 473 kts 244°
2026-05-06 05:55 19.14179 112.90766 39944 ft 473 kts 244°
2026-05-06 05:56 19.11138 112.84599 39943 ft 473 kts 244°
2026-05-06 05:56 19.08097 112.78435 39943 ft 473 kts 244°
2026-05-06 05:57 19.05053 112.72277 39945 ft 473 kts 244°
2026-05-06 05:57 19.02001 112.66111 39943 ft 473 kts 244°
2026-05-06 05:58 18.98954 112.59957 39943 ft 473 kts 244°
2026-05-06 05:58 18.95899 112.53796 39940 ft 473 kts 244°
2026-05-06 05:59 18.92839 112.47653 39941 ft 473 kts 243°
2026-05-06 05:59 18.88910 112.42060 39944 ft 478 kts 226°
2026-05-06 06:00 18.83737 112.37631 39943 ft 480 kts 218°
2026-05-06 06:00 18.78365 112.33589 39942 ft 481 kts 217°
2026-05-06 06:01 18.72910 112.29550 39941 ft 481 kts 217°
2026-05-06 06:01 18.67575 112.25326 39945 ft 479 kts 225°
2026-05-06 06:02 18.63309 112.20008 39943 ft 474 kts 236°
2026-05-06 06:02 18.59602 112.14259 39945 ft 474 kts 238°
2026-05-06 06:03 18.56003 112.08486 39941 ft 474 kts 238°
2026-05-06 06:03 18.52367 112.02683 39945 ft 474 kts 238°
2026-05-06 06:04 18.48713 111.96899 39942 ft 474 kts 238°
2026-05-06 06:04 18.45048 111.91121 39942 ft 475 kts 238°
2026-05-06 06:05 18.41375 111.85335 39944 ft 475 kts 238°
2026-05-06 06:05 18.37705 111.79557 39943 ft 475 kts 238°
2026-05-06 06:06 18.34032 111.73780 39945 ft 475 kts 238°
2026-05-06 06:06 18.30361 111.68011 39941 ft 475 kts 238°
2026-05-06 06:07 18.26682 111.62234 39933 ft 475 kts 238°
2026-05-06 06:07 18.23004 111.56464 39933 ft 475 kts 238°
2026-05-06 06:08 18.19324 111.50696 39936 ft 475 kts 238°
2026-05-06 06:08 18.15641 111.44928 39935 ft 475 kts 238°
2026-05-06 06:09 18.11955 111.39165 39934 ft 475 kts 238°
2026-05-06 06:09 18.08268 111.33399 39934 ft 475 kts 238°
2026-05-06 06:10 18.04580 111.27634 39934 ft 475 kts 238°
2026-05-06 06:10 18.00909 111.21906 39933 ft 476 kts 238°
2026-05-06 06:11 17.97206 111.16136 39934 ft 476 kts 238°
2026-05-06 06:11 17.93503 111.10370 39935 ft 476 kts 237°
2026-05-06 06:12 17.89798 111.04606 39935 ft 476 kts 237°
2026-05-06 06:12 17.86090 110.98836 39934 ft 477 kts 237°
2026-05-06 06:13 17.82371 110.93055 39933 ft 477 kts 237°
2026-05-06 06:13 17.78655 110.87285 39932 ft 478 kts 237°
2026-05-06 06:14 17.74931 110.81510 39935 ft 478 kts 237°
2026-05-06 06:14 17.71204 110.75733 39935 ft 478 kts 237°
2026-05-06 06:15 17.67476 110.69961 39911 ft 478 kts 237°
2026-05-06 06:15 17.63741 110.64184 39906 ft 479 kts 237°
2026-05-06 06:16 17.60002 110.58406 39905 ft 479 kts 237°
2026-05-06 06:16 17.56265 110.52635 39906 ft 479 kts 237°
2026-05-06 06:17 17.52521 110.46858 39906 ft 479 kts 237°
2026-05-06 06:17 17.48776 110.41086 39906 ft 479 kts 237°
2026-05-06 06:18 17.45032 110.35321 39906 ft 479 kts 237°
2026-05-06 06:18 17.41286 110.29553 39906 ft 479 kts 237°
2026-05-06 06:19 17.37563 110.23766 39908 ft 479 kts 238°
2026-05-06 06:19 17.33868 110.17971 39907 ft 479 kts 238°
2026-05-06 06:20 17.30164 110.12179 39906 ft 479 kts 238°
2026-05-06 06:20 17.26479 110.06428 39908 ft 478 kts 238°
2026-05-06 06:21 17.22772 110.00652 39906 ft 478 kts 238°
2026-05-06 06:21 17.19063 109.94877 39906 ft 478 kts 238°
2026-05-06 06:22 17.15352 109.89106 39906 ft 478 kts 238°
2026-05-06 06:22 17.11639 109.83337 39906 ft 478 kts 238°
2026-05-06 06:23 17.07926 109.77572 39906 ft 478 kts 238°
2026-05-06 06:23 17.04207 109.71805 39906 ft 478 kts 238°
2026-05-06 06:24 17.00492 109.66046 39906 ft 478 kts 238°
2026-05-06 06:24 16.96779 109.60292 39898 ft 477 kts 238°
2026-05-06 06:25 16.93694 109.55518 39897 ft 477 kts 238°
2026-05-06 06:26 16.88117 109.46896 39897 ft 477 kts 237°
2026-05-06 06:26 16.84402 109.41159 39897 ft 477 kts 237°
2026-05-06 06:27 16.80686 109.35425 39897 ft 477 kts 238°
2026-05-06 06:27 16.76973 109.29685 39898 ft 477 kts 238°
2026-05-06 06:28 16.73261 109.23951 39897 ft 477 kts 238°
2026-05-06 06:28 16.69545 109.18217 39897 ft 477 kts 237°
2026-05-06 06:29 16.65831 109.12490 39897 ft 477 kts 237°
2026-05-06 06:29 16.62115 109.06766 39891 ft 476 kts 237°
2026-05-06 06:30 16.58396 109.01040 39888 ft 477 kts 237°
2026-05-06 06:30 16.54672 108.95326 39887 ft 477 kts 237°
2026-05-06 06:31 16.50890 108.89640 39888 ft 477 kts 237°
2026-05-06 06:31 16.47091 108.83965 39888 ft 477 kts 237°
2026-05-06 06:32 16.43300 108.78292 39888 ft 477 kts 237°
2026-05-06 06:32 16.39513 108.72618 39888 ft 477 kts 237°
2026-05-06 06:33 16.35723 108.66941 39888 ft 477 kts 237°
2026-05-06 06:33 16.31975 108.61238 39888 ft 477 kts 238°
2026-05-06 06:34 16.28297 108.55483 39888 ft 477 kts 238°
2026-05-06 06:34 16.24611 108.49725 39887 ft 477 kts 238°
2026-05-06 06:35 16.20914 108.43989 39888 ft 478 kts 237°
2026-05-06 06:35 16.17207 108.38261 39887 ft 477 kts 237°
2026-05-06 06:36 16.13501 108.32531 39888 ft 477 kts 237°
2026-05-06 06:36 16.09831 108.26860 39888 ft 477 kts 237°
2026-05-06 06:37 16.06236 108.21065 39888 ft 476 kts 243°
2026-05-06 06:37 16.03827 108.14691 39887 ft 474 kts 253°
2026-05-06 06:38 16.01940 108.08130 39886 ft 474 kts 255°
2026-05-06 06:38 16.00130 108.01545 39887 ft 474 kts 255°
2026-05-06 06:39 15.98310 107.94960 39888 ft 474 kts 255°
2026-05-06 06:39 15.96469 107.88387 39888 ft 474 kts 255°
2026-05-06 06:40 15.94645 107.81803 39888 ft 474 kts 255°
2026-05-06 06:40 15.92862 107.75211 39889 ft 474 kts 255°
2026-05-06 06:41 15.91076 107.68622 39888 ft 474 kts 255°
2026-05-06 06:41 15.89262 107.62039 39887 ft 474 kts 254°
2026-05-06 06:42 15.87374 107.55478 39888 ft 475 kts 254°
2026-05-06 06:42 15.85473 107.48913 39880 ft 475 kts 254°
2026-05-06 06:43 15.83579 107.42345 39878 ft 475 kts 254°
2026-05-06 06:43 15.81690 107.35775 39880 ft 475 kts 254°
2026-05-06 06:44 15.79800 107.29208 39879 ft 475 kts 254°
2026-05-06 06:44 15.77784 107.22668 39861 ft 476 kts 248°
2026-05-06 06:45 15.74434 107.16752 39862 ft 479 kts 231°
2026-05-06 06:45 15.69676 107.11898 39858 ft 480 kts 223°
2026-05-06 06:46 15.64620 107.07358 39860 ft 481 kts 221°
2026-05-06 06:46 15.59533 107.02848 39858 ft 481 kts 222°
2026-05-06 06:47 15.54497 106.98345 39861 ft 481 kts 222°
2026-05-06 06:47 15.49442 106.93799 39861 ft 481 kts 222°
2026-05-06 06:48 15.44391 106.89250 39861 ft 481 kts 222°
2026-05-06 06:48 15.39339 106.84703 39858 ft 481 kts 222°
2026-05-06 06:49 15.34283 106.80161 39861 ft 481 kts 222°
2026-05-06 06:49 15.29229 106.75625 39860 ft 481 kts 222°
2026-05-06 06:50 15.24176 106.71089 39859 ft 481 kts 222°
2026-05-06 06:50 15.19123 106.66553 39859 ft 481 kts 222°
2026-05-06 06:51 15.14065 106.62021 39861 ft 481 kts 222°
2026-05-06 06:51 15.09010 106.57496 39860 ft 480 kts 222°
2026-05-06 06:52 15.03957 106.52974 39860 ft 480 kts 222°
2026-05-06 06:52 14.98899 106.48452 39859 ft 480 kts 222°
2026-05-06 06:53 14.93840 106.43931 39860 ft 480 kts 221°
2026-05-06 06:53 14.88787 106.39416 39861 ft 480 kts 221°
2026-05-06 06:54 14.83730 106.34910 39860 ft 480 kts 221°
2026-05-06 06:54 14.78669 106.30407 39849 ft 480 kts 221°
2026-05-06 06:55 14.73615 106.25913 39849 ft 479 kts 221°
2026-05-06 06:55 14.68594 106.21455 39848 ft 480 kts 221°
2026-05-06 06:56 14.63533 106.16964 39857 ft 480 kts 221°
2026-05-06 06:56 14.58473 106.12475 39847 ft 479 kts 221°
2026-05-06 06:57 14.53415 106.07989 39852 ft 479 kts 221°
2026-05-06 06:57 14.48360 106.03510 39848 ft 479 kts 221°
2026-05-06 06:58 14.43302 105.99033 39848 ft 479 kts 221°
2026-05-06 06:58 14.38248 105.94559 39850 ft 479 kts 221°
2026-05-06 06:59 14.33194 105.90090 39854 ft 478 kts 221°
2026-05-06 06:59 14.28142 105.85626 39850 ft 478 kts 221°
2026-05-06 07:00 14.23090 105.81161 39856 ft 478 kts 221°
2026-05-06 07:00 14.18031 105.76696 39854 ft 478 kts 221°
2026-05-06 07:01 14.12977 105.72237 39860 ft 478 kts 221°
2026-05-06 07:01 14.07919 105.67784 39860 ft 478 kts 221°
2026-05-06 07:02 14.02842 105.63355 39860 ft 478 kts 221°
2026-05-06 07:02 13.97759 105.58924 39860 ft 479 kts 220°
2026-05-06 07:03 13.92679 105.54500 39849 ft 479 kts 220°
2026-05-06 07:03 13.87585 105.50066 39852 ft 480 kts 220°
2026-05-06 07:04 13.82522 105.45660 39849 ft 480 kts 220°
2026-05-06 07:04 13.77687 105.40946 39849 ft 479 kts 227°
2026-05-06 07:05 13.73119 105.35945 39847 ft 479 kts 227°
2026-05-06 07:05 13.68596 105.30905 39847 ft 479 kts 228°
2026-05-06 07:06 13.64072 105.25868 39854 ft 480 kts 227°
2026-05-06 07:06 13.59534 105.20829 39846 ft 480 kts 227°
2026-05-06 07:07 13.54991 105.15797 39843 ft 480 kts 227°
2026-05-06 07:07 13.50444 105.10763 39846 ft 481 kts 228°
2026-05-06 07:08 13.45900 105.05733 39841 ft 481 kts 227°
2026-05-06 07:08 13.41342 105.00693 39844 ft 481 kts 228°
2026-05-06 07:09 13.36789 104.95662 39846 ft 481 kts 228°
2026-05-06 07:09 13.32234 104.90630 39844 ft 481 kts 228°
2026-05-06 07:10 13.27673 104.85593 39837 ft 482 kts 228°
2026-05-06 07:10 13.23106 104.80553 39844 ft 482 kts 228°
2026-05-06 07:11 13.18575 104.75555 39835 ft 482 kts 228°
2026-05-06 07:11 13.14004 104.70520 39846 ft 482 kts 227°
2026-05-06 07:12 13.09433 104.65487 39844 ft 483 kts 227°
2026-05-06 07:12 13.04858 104.60446 39840 ft 483 kts 227°
2026-05-06 07:13 13.00280 104.55410 39837 ft 483 kts 227°
2026-05-06 07:13 12.95693 104.50371 39844 ft 483 kts 227°
2026-05-06 07:14 12.91852 104.46151 39836 ft 483 kts 227°
2026-05-06 07:14 12.87301 104.41153 39833 ft 483 kts 228°
2026-05-06 07:15 12.82684 104.36092 39839 ft 483 kts 228°
2026-05-06 07:15 12.78134 104.31097 39846 ft 483 kts 227°
2026-05-06 07:16 12.73552 104.26066 39846 ft 483 kts 227°
2026-05-06 07:16 12.68962 104.21033 39840 ft 483 kts 227°
2026-05-06 07:17 12.64368 104.16000 39837 ft 484 kts 227°
2026-05-06 07:17 12.59782 104.10981 39845 ft 484 kts 227°
2026-05-06 07:18 12.55180 104.05946 39843 ft 484 kts 227°
2026-05-06 07:18 12.50583 104.00920 39839 ft 484 kts 227°
2026-05-06 07:19 12.45983 103.95892 39845 ft 484 kts 227°
2026-05-06 07:19 12.41375 103.90867 39853 ft 485 kts 227°
2026-05-06 07:20 12.36769 103.85834 39852 ft 485 kts 227°
2026-05-06 07:20 12.32160 103.80800 39852 ft 485 kts 227°
2026-05-06 07:21 12.27548 103.75768 39853 ft 485 kts 227°
2026-05-06 07:21 12.22936 103.70744 39868 ft 485 kts 227°
2026-05-06 07:22 12.18414 103.65629 39869 ft 484 kts 229°
2026-05-06 07:22 12.13987 103.60444 39869 ft 485 kts 230°
2026-05-06 07:23 12.09541 103.55264 39870 ft 484 kts 229°
2026-05-06 07:23 12.05079 103.50106 39860 ft 484 kts 229°
2026-05-06 07:24 12.00612 103.44961 39860 ft 484 kts 229°
2026-05-06 07:24 11.96169 103.39846 39866 ft 484 kts 229°
2026-05-06 07:25 11.91697 103.34700 39869 ft 485 kts 229°
2026-05-06 07:25 11.87223 103.29551 39870 ft 485 kts 229°
2026-05-06 07:26 11.82749 103.24406 39869 ft 485 kts 229°
2026-05-06 07:26 11.78273 103.19261 39875 ft 485 kts 229°
2026-05-06 07:27 11.73792 103.14113 39878 ft 485 kts 229°
2026-05-06 07:27 11.69315 103.08974 39878 ft 485 kts 229°
2026-05-06 07:28 11.64838 103.03837 39888 ft 485 kts 229°